Weather reports worldwide

Advertisment
Newton Rigg, United Kingdom (99152): temperature & dewpoint: 16.01.2020 00:00:00 - 22.01.2020 00:00:00 (GMT)Newton Rigg, United Kingdom (99152): temperature -20cm & temperature -100cm: 16.01.2020 00:00:00 - 22.01.2020 00:00:00 (GMT)Newton Rigg, United Kingdom (99152): precipitation: 16.01.2020 00:00:00 - 22.01.2020 00:00:00 (GMT)
Date & Time tt [°C] td [°C] tt -20cm [°C] tt -100cm [°C] rr [mm]
22.01.2020 00:00:00 8,3 7,4 - - 0,0
21.01.2020 23:00:00 8,2 7,4 - - 0,0
21.01.2020 22:00:00 8,1 7,2 - - 0,0
21.01.2020 21:00:00 8,2 7,1 - - 0,0
21.01.2020 20:00:00 8,2 7,0 - - 0,0
21.01.2020 19:00:00 8,0 7,0 - - 0,0
21.01.2020 18:00:00 7,7 6,6 - - 0,0
21.01.2020 17:00:00 7,6 6,5 - - 0,0
21.01.2020 16:00:00 7,6 6,8 - - 0,0
21.01.2020 15:00:00 7,9 6,8 - - 0,0
21.01.2020 14:00:00 8,1 6,7 - - 0,0
21.01.2020 13:00:00 8,2 6,6 - - 0,0
21.01.2020 12:00:00 7,3 6,1 - - 0,0
21.01.2020 11:00:00 6,3 5,2 - - 0,0
21.01.2020 10:00:00 5,9 4,6 - - 0,0
21.01.2020 09:00:00 5,8 4,4 5,0 6,7 0,0
21.01.2020 08:00:00 6,5 5,1 - - 0,0
21.01.2020 07:00:00 6,2 5,0 - - 0,0
21.01.2020 06:00:00 6,0 4,3 - - 0,0
21.01.2020 05:00:00 6,3 3,9 - - 0,0
21.01.2020 04:00:00 6,0 3,5 - - 0,0
21.01.2020 03:00:00 5,8 3,3 - - 0,0
21.01.2020 02:00:00 6,6 3,3 - - 0,0
21.01.2020 01:00:00 6,7 3,4 - - 0,0
21.01.2020 00:00:00 6,4 3,2 - - 0,0
20.01.2020 23:00:00 6,1 3,2 - - 0,0
20.01.2020 22:00:00 5,8 3,0 - - 0,0
20.01.2020 21:00:00 5,5 3,1 - - 0,0
20.01.2020 20:00:00 6,1 3,8 - - 0,0
20.01.2020 19:00:00 5,8 3,5 - - 0,0
20.01.2020 18:00:00 5,5 3,3 - - 0,0
20.01.2020 17:00:00 5,0 2,8 - - 0,0
20.01.2020 16:00:00 6,0 2,6 - - 0,0
20.01.2020 15:00:00 7,6 3,2 - - 0,0
20.01.2020 14:00:00 7,5 3,2 - - 0,0
20.01.2020 13:00:00 6,7 3,2 - - 0,0
20.01.2020 12:00:00 5,6 2,3 - - 0,0
20.01.2020 11:00:00 4,6 1,9 - - 0,0
20.01.2020 10:00:00 1,4 0,4 - - 0,2
20.01.2020 09:00:00 -0,3 -0,8 5,0 6,7 0,0
20.01.2020 08:00:00 -0,2 -0,7 - - 0,0
20.01.2020 07:00:00 -0,6 -1,0 - - 0,0
20.01.2020 06:00:00 -0,6 -1,1 - - 0,0
20.01.2020 05:00:00 -0,1 -0,8 - - 0,0
20.01.2020 04:00:00 1,1 0,2 - - 0,0
20.01.2020 03:00:00 2,4 -0,5 - - 0,0
20.01.2020 02:00:00 2,2 -0,7 - - 0,0
20.01.2020 01:00:00 2,5 0,8 - - 0,0
20.01.2020 00:00:00 1,3 0,5 - - 0,0
19.01.2020 23:00:00 1,1 0,7 - - 0,0
19.01.2020 22:00:00 1,3 0,9 - - 0,0
19.01.2020 21:00:00 1,4 1,0 - - 0,0
19.01.2020 20:00:00 0,8 0,0 - - 0,0
19.01.2020 19:00:00 1,3 0,5 - - 0,0
19.01.2020 18:00:00 1,9 0,7 - - 0,0
19.01.2020 17:00:00 2,5 1,0 - - 0,0
19.01.2020 16:00:00 3,0 1,1 - - 0,0
19.01.2020 15:00:00 3,4 1,1 - - 0,0
19.01.2020 14:00:00 3,0 1,0 - - 0,0
19.01.2020 13:00:00 3,8 0,3 - - 0,0
19.01.2020 12:00:00 2,4 -0,1 - - 0,0
19.01.2020 11:00:00 0,1 -0,9 - - 0,0
19.01.2020 10:00:00 -1,4 -2,1 - - 0,0
19.01.2020 09:00:00 -1,0 -1,4 5,4 6,9 0,0
19.01.2020 08:00:00 -2,4 -2,9 - - 0,0
19.01.2020 07:00:00 -2,1 -2,5 - - 0,0
19.01.2020 06:00:00 -2,1 -2,5 - - 0,0
19.01.2020 05:00:00 -2,2 -2,6 - - 0,0
19.01.2020 04:00:00 -2,0 -2,3 - - 0,0
19.01.2020 03:00:00 -2,5 -2,9 - - 0,0
19.01.2020 02:00:00 -1,8 -2,3 - - 0,0
19.01.2020 01:00:00 -0,8 -1,3 - - 0,0
19.01.2020 00:00:00 -0,9 -1,6 - - 0,0
18.01.2020 23:00:00 -0,3 -1,0 - - 0,0
18.01.2020 22:00:00 0,1 -0,7 - - 0,0
18.01.2020 21:00:00 0,7 -0,3 - - 0,0
18.01.2020 20:00:00 2,0 0,1 - - 0,0
18.01.2020 19:00:00 3,1 0,6 - - 0,0
18.01.2020 18:00:00 3,7 0,6 - - 0,0
18.01.2020 17:00:00 4,2 0,8 - - 0,0
18.01.2020 16:00:00 4,3 0,7 - - 0,0
18.01.2020 15:00:00 5,0 0,8 - - 0,0
18.01.2020 14:00:00 5,7 1,1 - - 0,0
18.01.2020 13:00:00 5,9 1,7 - - 0,0
18.01.2020 12:00:00 5,2 1,6 - - 0,0
18.01.2020 11:00:00 4,8 1,6 - - 0,0
18.01.2020 10:00:00 4,1 1,2 - - 0,0
18.01.2020 09:00:00 3,0 0,8 5,9 6,9 0,0
18.01.2020 08:00:00 2,3 0,1 - - 0,0
18.01.2020 07:00:00 2,0 -0,5 - - 0,0
18.01.2020 06:00:00 2,1 -0,2 - - 0,0
18.01.2020 05:00:00 2,6 -0,4 - - 0,0
18.01.2020 04:00:00 2,9 0,0 - - 0,0
18.01.2020 03:00:00 2,7 0,1 - - 0,0
18.01.2020 02:00:00 3,2 0,8 - - 0,0
18.01.2020 01:00:00 3,2 0,8 - - 0,0
18.01.2020 00:00:00 3,3 0,6 - - 0,0
17.01.2020 23:00:00 3,4 0,9 - - 0,0
17.01.2020 22:00:00 3,5 1,0 - - 0,0
17.01.2020 21:00:00 4,3 1,8 - - 0,0
17.01.2020 20:00:00 4,2 2,0 - - 0,0
17.01.2020 19:00:00 4,1 2,1 - - 0,0
17.01.2020 18:00:00 4,1 2,4 - - 0,2
17.01.2020 17:00:00 4,8 1,8 - - 0,0
17.01.2020 16:00:00 5,0 1,4 - - 0,0
17.01.2020 15:00:00 4,9 1,3 - - 0,0
17.01.2020 14:00:00 5,1 1,4 - - 0,0
17.01.2020 13:00:00 5,0 1,2 - - 0,0
17.01.2020 12:00:00 4,6 1,5 - - 0,0
17.01.2020 11:00:00 4,1 2,6 - - 0,0
17.01.2020 10:00:00 3,7 2,8 - - 0,0
17.01.2020 09:00:00 3,8 2,8 6,0 6,9 0,0
17.01.2020 08:00:00 3,9 3,0 - - 0,8
17.01.2020 07:00:00 4,2 2,9 - - 0,6
17.01.2020 06:00:00 4,2 3,5 - - 0,2
17.01.2020 05:00:00 4,5 3,3 - - 0,8
17.01.2020 04:00:00 5,8 4,6 - - 0,0
17.01.2020 03:00:00 6,2 4,4 - - 0,0
17.01.2020 02:00:00 6,1 4,9 - - 0,4
17.01.2020 01:00:00 5,8 4,1 - - 0,8
17.01.2020 00:00:00 6,3 4,6 - - 1,6
16.01.2020 23:00:00 7,2 4,5 - - 0,0
16.01.2020 22:00:00 7,6 4,6 - - 0,0
16.01.2020 21:00:00 7,8 5,6 - - 0,8
16.01.2020 20:00:00 9,4 7,9 - - 1,2
16.01.2020 19:00:00 9,9 8,2 - - 0,6
16.01.2020 18:00:00 9,8 8,6 - - 1,8
16.01.2020 17:00:00 9,7 8,2 - - 1,4
16.01.2020 16:00:00 8,6 7,6 - - 1,4
16.01.2020 15:00:00 8,3 6,7 - - 1,6
16.01.2020 14:00:00 7,5 5,9 - - 1,8
16.01.2020 13:00:00 7,3 4,2 - - 0,0
16.01.2020 12:00:00 7,1 3,8 - - 0,0
16.01.2020 11:00:00 7,1 4,3 - - 0,0
16.01.2020 10:00:00 6,7 4,2 - - 0,0
16.01.2020 09:00:00 6,1 4,1 5,7 7,0 0,0
16.01.2020 08:00:00 6,3 3,8 - - 0,0
16.01.2020 07:00:00 6,1 4,0 - - 0,0
16.01.2020 06:00:00 6,0 3,7 - - 0,0
16.01.2020 05:00:00 6,0 3,5 - - 0,0
16.01.2020 04:00:00 6,1 3,9 - - 0,0
16.01.2020 03:00:00 6,7 3,6 - - 0,0
16.01.2020 02:00:00 6,6 3,0 - - 0,0
16.01.2020 01:00:00 5,8 1,8 - - 0,0
16.01.2020 00:00:00 6,4 1,5 - - 0,0

tt = temperature
td = dewpoint
tt -20cm = temperature -20cm
tt -100cm = temperature -100cm
rr = precipitation

Next stations